WAT220 HTDA-HKJK

Flight info

Callsign WAT220
Flight time 0h 56m
Altitude 20000
Route EGVAT1D GEREN UL445 GABSO GABSO4C
Aircraft B77L/H-SDE1E2E3FGHIJ2J3J4J5M1RWXY/LB1D1

Departure

Time 2026-04-30 09:44
Airport Julius Nyerere International Airport (HTDA)

Arrival

Time 2026-04-30 10:41
Airport Jomo Kenyatta International Airport (HKJK)
Time Latitude Longitude Altitude Speed Heading
2026-04-30 09:19 -6.86896 39.20681 192 ft 0 kts 22°
2026-04-30 09:39 -6.86892 39.20683 192 ft 3 kts 22°
2026-04-30 09:39 -6.86864 39.20698 193 ft 5 kts 40°
2026-04-30 09:39 -6.86854 39.20747 193 ft 10 kts 108°
2026-04-30 09:40 -6.86881 39.20822 191 ft 11 kts 110°
2026-04-30 09:40 -6.86910 39.20899 190 ft 11 kts 91°
2026-04-30 09:40 -6.86864 39.20970 189 ft 14 kts 46°
2026-04-30 09:40 -6.86794 39.21042 188 ft 14 kts 45°
2026-04-30 09:41 -6.86727 39.21111 187 ft 13 kts 46°
2026-04-30 09:41 -6.86667 39.21175 187 ft 11 kts 46°
2026-04-30 09:41 -6.86612 39.21233 187 ft 10 kts 46°
2026-04-30 09:41 -6.86552 39.21292 187 ft 14 kts 44°
2026-04-30 09:42 -6.86465 39.21379 188 ft 19 kts 45°
2026-04-30 09:42 -6.86376 39.21468 187 ft 6 kts 45°
2026-04-30 09:42 -6.86342 39.21505 186 ft 7 kts 57°
2026-04-30 09:42 -6.86330 39.21567 184 ft 10 kts 85°
2026-04-30 09:43 -6.86342 39.21647 181 ft 12 kts 123°
2026-04-30 09:43 -6.86380 39.21681 179 ft 3 kts 168°
2026-04-30 09:43 -6.86419 39.21658 179 ft 13 kts 224°
2026-04-30 09:43 -6.86619 39.21460 185 ft 76 kts 226°
2026-04-30 09:44 -6.87176 39.20900 190 ft 148 kts 225°
2026-04-30 09:44 -6.88036 39.20033 434 ft 187 kts 223°
2026-04-30 09:44 -6.88919 39.19128 1451 ft 181 kts 222°
2026-04-30 09:44 -6.89740 39.18288 2388 ft 170 kts 220°
2026-04-30 09:45 -6.90609 39.17425 2833 ft 178 kts 221°
2026-04-30 09:45 -6.91426 39.16491 3373 ft 184 kts 237°
2026-04-30 09:45 -6.91836 39.15189 3649 ft 209 kts 262°
2026-04-30 09:45 -6.91602 39.13680 3927 ft 235 kts 292°
2026-04-30 09:46 -6.90681 39.12233 4295 ft 255 kts 304°
2026-04-30 09:46 -6.89590 39.10762 4748 ft 271 kts 305°
2026-04-30 09:46 -6.88409 39.09181 5230 ft 287 kts 305°
2026-04-30 09:46 -6.87220 39.07594 5984 ft 289 kts 305°
2026-04-30 09:47 -6.85993 39.05956 6727 ft 292 kts 305°
2026-04-30 09:47 -6.84762 39.04313 7442 ft 295 kts 306°
2026-04-30 09:47 -6.83528 39.02665 8045 ft 301 kts 306°
2026-04-30 09:47 -6.82263 39.00979 8737 ft 303 kts 307°
2026-04-30 09:48 -6.80980 38.99268 9167 ft 309 kts 307°
2026-04-30 09:48 -6.79696 38.97555 10013 ft 305 kts 307°
2026-04-30 09:48 -6.78311 38.95925 10598 ft 312 kts 318°
2026-04-30 09:48 -6.76518 38.94633 10907 ft 328 kts 333°
2026-04-30 09:49 -6.74315 38.93903 11216 ft 342 kts 354°
2026-04-30 09:49 -6.71851 38.93800 11621 ft 357 kts
2026-04-30 09:49 -6.69326 38.93811 12080 ft 370 kts
2026-04-30 09:49 -6.66693 38.93830 12630 ft 381 kts
2026-04-30 09:50 -6.64039 38.93850 13407 ft 385 kts
2026-04-30 09:50 -6.61387 38.93869 14197 ft 390 kts
2026-04-30 09:50 -6.58669 38.93889 14926 ft 398 kts
2026-04-30 09:50 -6.55853 38.93910 15697 ft 405 kts
2026-04-30 09:51 -6.53033 38.93930 16481 ft 411 kts
2026-04-30 09:51 -6.50142 38.93951 17257 ft 416 kts
2026-04-30 09:51 -6.47199 38.93972 18004 ft 423 kts
2026-04-30 09:51 -6.44254 38.93994 18800 ft 426 kts
2026-04-30 09:52 -6.41284 38.94015 19594 ft 429 kts
2026-04-30 09:52 -6.38259 38.94037 20327 ft 434 kts
2026-04-30 09:52 -6.35227 38.94059 21010 ft 438 kts
2026-04-30 09:52 -6.32126 38.94082 21708 ft 443 kts
2026-04-30 09:53 -6.29061 38.94104 22341 ft 447 kts
2026-04-30 09:53 -6.25884 38.94127 22977 ft 453 kts
2026-04-30 09:53 -6.22708 38.94150 23561 ft 458 kts
2026-04-30 09:53 -6.19526 38.94173 24132 ft 464 kts
2026-04-30 09:54 -6.16262 38.94197 24704 ft 470 kts
2026-04-30 09:54 -6.12966 38.94125 25307 ft 476 kts 356°
2026-04-30 09:54 -6.09649 38.93566 25887 ft 483 kts 347°
2026-04-30 09:54 -6.06460 38.92489 26460 ft 490 kts 338°
2026-04-30 09:55 -6.03317 38.91058 27075 ft 495 kts 336°
2026-04-30 09:55 -6.00200 38.89595 27656 ft 500 kts 336°
2026-04-30 09:55 -5.97001 38.88094 28251 ft 506 kts 336°
2026-04-30 09:55 -5.93819 38.86607 28850 ft 511 kts 336°
2026-04-30 09:56 -5.90554 38.85083 29485 ft 515 kts 336°
2026-04-30 09:56 -5.87261 38.83549 30340 ft 514 kts 336°
2026-04-30 09:56 -5.84058 38.82058 31334 ft 509 kts 336°
2026-04-30 09:56 -5.80841 38.80561 32309 ft 504 kts 336°
2026-04-30 09:57 -5.77696 38.79100 33196 ft 500 kts 337°
2026-04-30 09:57 -5.74520 38.77625 33903 ft 499 kts 337°
2026-04-30 09:57 -5.68209 38.74697 33991 ft 495 kts 337°
2026-04-30 09:58 -5.61935 38.71788 33994 ft 495 kts 337°
2026-04-30 09:58 -5.55683 38.68890 34006 ft 495 kts 337°
2026-04-30 09:59 -5.43150 38.63083 34012 ft 494 kts 337°
2026-04-30 10:00 -5.33782 38.58745 34025 ft 494 kts 337°
2026-04-30 10:01 -5.24417 38.54409 34029 ft 492 kts 336°
2026-04-30 10:02 -5.15061 38.50079 34043 ft 491 kts 336°
2026-04-30 10:02 -5.08863 38.47212 34060 ft 491 kts 336°
2026-04-30 10:03 -5.02581 38.44458 34071 ft 490 kts 340°
2026-04-30 10:03 -4.96202 38.41939 34085 ft 491 kts 340°
2026-04-30 10:04 -4.89823 38.39406 34110 ft 490 kts 340°
2026-04-30 10:04 -4.83464 38.36871 34140 ft 490 kts 340°
2026-04-30 10:05 -4.77076 38.34318 34180 ft 490 kts 340°
2026-04-30 10:05 -4.70730 38.31781 34201 ft 491 kts 340°
2026-04-30 10:06 -4.64371 38.29236 34199 ft 490 kts 340°
2026-04-30 10:06 -4.58057 38.26709 34198 ft 490 kts 340°
2026-04-30 10:07 -4.51652 38.24146 34204 ft 491 kts 340°
2026-04-30 10:07 -4.45313 38.21609 34187 ft 490 kts 340°
2026-04-30 10:08 -4.38923 38.19052 34154 ft 491 kts 340°
2026-04-30 10:08 -4.32575 38.16512 34129 ft 492 kts 340°
2026-04-30 10:09 -4.26179 38.13954 34116 ft 492 kts 340°
2026-04-30 10:09 -4.19785 38.11397 34118 ft 493 kts 339°
2026-04-30 10:10 -4.13427 38.08855 34117 ft 491 kts 340°
2026-04-30 10:10 -4.07023 38.06295 34115 ft 491 kts 340°
2026-04-30 10:11 -4.00656 38.03750 34112 ft 491 kts 340°
2026-04-30 10:11 -3.94305 38.01211 34104 ft 492 kts 340°
2026-04-30 10:12 -3.87915 37.98658 34118 ft 492 kts 340°
2026-04-30 10:12 -3.81493 37.96155 34116 ft 492 kts 344°
2026-04-30 10:13 -3.74864 37.94350 34120 ft 492 kts 347°
2026-04-30 10:13 -3.68232 37.92614 34125 ft 491 kts 347°
2026-04-30 10:14 -3.61606 37.90876 34128 ft 490 kts 347°
2026-04-30 10:14 -3.52042 37.87125 34125 ft 494 kts 337°
2026-04-30 10:15 -3.45782 37.84272 34129 ft 493 kts 337°
2026-04-30 10:15 -3.39524 37.81423 34128 ft 492 kts 337°
2026-04-30 10:16 -3.33231 37.78560 34139 ft 493 kts 337°
2026-04-30 10:17 -3.23888 37.74310 33982 ft 488 kts 337°
2026-04-30 10:17 -3.17657 37.71478 33069 ft 496 kts 337°
2026-04-30 10:17 -3.14493 37.70041 32594 ft 500 kts 337°
2026-04-30 10:18 -3.11286 37.68583 32165 ft 499 kts 337°
2026-04-30 10:18 -3.08108 37.67139 31378 ft 501 kts 337°
2026-04-30 10:18 -3.04940 37.65699 30655 ft 500 kts 337°
2026-04-30 10:19 -2.98683 37.62854 29732 ft 488 kts 337°
2026-04-30 10:19 -2.95591 37.61449 29214 ft 484 kts 337°
2026-04-30 10:19 -2.92523 37.60055 28695 ft 480 kts 337°
2026-04-30 10:19 -2.89499 37.58682 28172 ft 476 kts 337°
2026-04-30 10:20 -2.86437 37.57289 27626 ft 473 kts 336°
2026-04-30 10:20 -2.80761 37.54031 26549 ft 468 kts 330°
2026-04-30 10:20 -2.77964 37.52322 25986 ft 465 kts 329°
2026-04-30 10:21 -2.75230 37.50651 25435 ft 462 kts 329°
2026-04-30 10:21 -2.72476 37.48969 24863 ft 459 kts 329°
2026-04-30 10:21 -2.69787 37.47327 24307 ft 456 kts 329°
2026-04-30 10:21 -2.67064 37.45666 23746 ft 452 kts 329°
2026-04-30 10:22 -2.64379 37.44028 23197 ft 449 kts 329°
2026-04-30 10:22 -2.61727 37.42410 22654 ft 445 kts 329°
2026-04-30 10:22 -2.59075 37.40793 22105 ft 441 kts 329°
2026-04-30 10:22 -2.56431 37.39254 21564 ft 437 kts 334°
2026-04-30 10:23 -2.53615 37.38132 21031 ft 433 kts 344°
2026-04-30 10:23 -2.50720 37.37479 20748 ft 422 kts 349°
2026-04-30 10:23 -2.47838 37.36947 20528 ft 411 kts 350°
2026-04-30 10:23 -2.45036 37.36437 20293 ft 408 kts 350°
2026-04-30 10:24 -2.42236 37.35930 20035 ft 408 kts 350°
2026-04-30 10:24 -2.39415 37.35419 19780 ft 407 kts 349°
2026-04-30 10:24 -2.36652 37.34919 19514 ft 406 kts 349°
2026-04-30 10:24 -2.33853 37.34414 19254 ft 405 kts 349°
2026-04-30 10:25 -2.31055 37.33908 18987 ft 403 kts 349°
2026-04-30 10:25 -2.28304 37.33412 18735 ft 400 kts 349°
2026-04-30 10:25 -2.25541 37.32913 18476 ft 399 kts 349°
2026-04-30 10:25 -2.22828 37.32424 18228 ft 397 kts 349°
2026-04-30 10:26 -2.20079 37.31928 17982 ft 396 kts 349°
2026-04-30 10:26 -2.17372 37.31440 17727 ft 396 kts 349°
2026-04-30 10:26 -2.14659 37.30951 17466 ft 394 kts 349°
2026-04-30 10:26 -2.11934 37.30459 17207 ft 392 kts 349°
2026-04-30 10:27 -2.09268 37.29978 16977 ft 391 kts 349°
2026-04-30 10:27 -2.06571 37.29492 16735 ft 390 kts 349°
2026-04-30 10:27 -2.03909 37.29012 16490 ft 389 kts 349°
2026-04-30 10:27 -2.01228 37.28528 16245 ft 388 kts 349°
2026-04-30 10:28 -1.98580 37.28051 16000 ft 385 kts 349°
2026-04-30 10:28 -1.95921 37.27571 15761 ft 382 kts 349°
2026-04-30 10:28 -1.93285 37.27096 15518 ft 381 kts 350°
2026-04-30 10:28 -1.90681 37.26627 15278 ft 380 kts 350°
2026-04-30 10:29 -1.88049 37.26152 15047 ft 378 kts 350°
2026-04-30 10:29 -1.85463 37.25686 14809 ft 376 kts 350°
2026-04-30 10:29 -1.82879 37.25220 14573 ft 374 kts 350°
2026-04-30 10:29 -1.80309 37.24757 14344 ft 373 kts 350°
2026-04-30 10:30 -1.77755 37.24297 14103 ft 371 kts 350°
2026-04-30 10:30 -1.75188 37.23834 13865 ft 369 kts 350°
2026-04-30 10:30 -1.72677 37.23381 13624 ft 368 kts 350°
2026-04-30 10:30 -1.70166 37.22929 13392 ft 365 kts 350°
2026-04-30 10:31 -1.67649 37.22475 13161 ft 364 kts 350°
2026-04-30 10:31 -1.65134 37.22022 12921 ft 365 kts 350°
2026-04-30 10:31 -1.62614 37.21567 12683 ft 364 kts 350°
2026-04-30 10:31 -1.60141 37.21122 12450 ft 363 kts 350°
2026-04-30 10:32 -1.57650 37.20673 12096 ft 362 kts 350°
2026-04-30 10:32 -1.55173 37.20227 11824 ft 360 kts 351°
2026-04-30 10:32 -1.52675 37.19776 11527 ft 358 kts 350°
2026-04-30 10:32 -1.50262 37.19341 11284 ft 349 kts 351°
2026-04-30 10:33 -1.47882 37.18912 11058 ft 339 kts 351°
2026-04-30 10:33 -1.45577 37.18497 10844 ft 331 kts 351°
2026-04-30 10:33 -1.43343 37.18094 10630 ft 322 kts 351°
2026-04-30 10:33 -1.41149 37.17699 10421 ft 314 kts 351°
2026-04-30 10:34 -1.39007 37.17313 10230 ft 306 kts 351°
2026-04-30 10:34 -1.36946 37.16942 10035 ft 298 kts 351°
2026-04-30 10:34 -1.34905 37.16574 9823 ft 291 kts 351°
2026-04-30 10:34 -1.32925 37.16217 9609 ft 284 kts 351°
2026-04-30 10:35 -1.30990 37.15869 9412 ft 279 kts 351°
2026-04-30 10:35 -1.29060 37.15519 9211 ft 280 kts 349°
2026-04-30 10:35 -1.27259 37.14800 9007 ft 276 kts 329°
2026-04-30 10:35 -1.25692 37.13747 8820 ft 268 kts 325°
2026-04-30 10:36 -1.24209 37.12673 8563 ft 256 kts 325°
2026-04-30 10:36 -1.22811 37.11628 8385 ft 242 kts 317°
2026-04-30 10:36 -1.21840 37.10311 8232 ft 230 kts 294°
2026-04-30 10:36 -1.21491 37.08810 8086 ft 216 kts 270°
2026-04-30 10:37 -1.21711 37.07375 7882 ft 205 kts 249°
2026-04-30 10:37 -1.22350 37.06147 7681 ft 195 kts 238°
2026-04-30 10:37 -1.23029 37.05019 7504 ft 183 kts 236°
2026-04-30 10:37 -1.23747 37.03967 7342 ft 182 kts 233°
2026-04-30 10:38 -1.24488 37.02945 7184 ft 178 kts 233°
2026-04-30 10:38 -1.25193 37.01981 7037 ft 167 kts 232°
2026-04-30 10:38 -1.25870 37.01055 6876 ft 164 kts 232°
2026-04-30 10:38 -1.26545 37.00133 6626 ft 161 kts 233°
2026-04-30 10:39 -1.27200 36.99234 6381 ft 159 kts 233°
2026-04-30 10:39 -1.27850 36.98349 6157 ft 160 kts 232°
2026-04-30 10:39 -1.28504 36.97453 5966 ft 159 kts 233°
2026-04-30 10:39 -1.29158 36.96558 5742 ft 159 kts 232°
2026-04-30 10:40 -1.29811 36.95667 5540 ft 157 kts 233°
2026-04-30 10:40 -1.30450 36.94788 5357 ft 155 kts 232°
2026-04-30 10:40 -1.31075 36.93942 5296 ft 134 kts 234°
2026-04-30 10:40 -1.31534 36.93310 5317 ft 90 kts 233°
2026-04-30 10:41 -1.31795 36.92954 5323 ft 37 kts 234°
2026-04-30 10:41 -1.31900 36.92815 5323 ft 15 kts 219°
2026-04-30 10:41 -1.31990 36.92827 5323 ft 12 kts 145°
2026-04-30 10:41 -1.32066 36.92882 5327 ft 18 kts 143°
2026-04-30 10:42 -1.32154 36.92947 5330 ft 9 kts 146°
2026-04-30 10:42 -1.32217 36.92936 5329 ft 11 kts 225°
2026-04-30 10:42 -1.32269 36.92865 5330 ft 13 kts 235°
2026-04-30 10:42 -1.32320 36.92794 5330 ft 11 kts 234°
2026-04-30 10:43 -1.32367 36.92729 5329 ft 11 kts 234°
2026-04-30 10:43 -1.32421 36.92656 5329 ft 14 kts 234°
2026-04-30 10:43 -1.32491 36.92559 5327 ft 19 kts 234°
2026-04-30 10:43 -1.32579 36.92440 5324 ft 22 kts 233°
2026-04-30 10:44 -1.32668 36.92318 5321 ft 21 kts 234°
2026-04-30 10:44 -1.32745 36.92213 5324 ft 16 kts 234°
2026-04-30 10:44 -1.32806 36.92130 5328 ft 12 kts 234°
2026-04-30 10:44 -1.32858 36.92059 5332 ft 13 kts 234°
2026-04-30 10:45 -1.32925 36.91966 5334 ft 18 kts 234°
2026-04-30 10:45 -1.33008 36.91851 5332 ft 21 kts 234°
2026-04-30 10:45 -1.33092 36.91737 5331 ft 19 kts 234°
2026-04-30 10:45 -1.33173 36.91647 5332 ft 15 kts 219°
2026-04-30 10:46 -1.33224 36.91608 5334 ft 5 kts 199°
2026-04-30 10:46 -1.33257 36.91619 5334 ft 6 kts 150°
2026-04-30 10:46 -1.33289 36.91641 5335 ft 4 kts 144°
2026-04-30 10:46 -1.33301 36.91649 5335 ft 2 kts 143°
2026-04-30 10:47 -1.33304 36.91651 5335 ft 0 kts 143°